Погода в Зайсане

Казахстан     47°28′03″N   84°52′34″E
темп.,
°C
ветер,
м/с
пор.,
м/с
влажн.,
%
обл.,
%
осадки,
мм/ч
давл.,
гПа
погр.,
м
2 марта, вт
вт200:00−7с1193100 0.1 102521
03:00−6ссв1193100 0.2 102427
06:00−5ссв1289100 0.2 102433
09:00−7ссв2399100 0.2 1023122
12:00−4ссв2298100 0.3 1023166
15:00−2св3495100 0.0 1021216
18:00−4всв2292100 0.0 102165
21:00−3юв118596 0.0 102024
3 марта, ср
ср300:00−3с128798 0.0 102039
03:00−3с1286100 0.0 102041
06:00−5с1185100 0.0 102225
09:00−4св2291100 0.1 102480
12:00−2ссв33100100 0.6 1024184
15:00−3ссв2398100 5.0 1025233
18:00−4ссв1198100 8.3 102725
21:00−6ююв1192100 0.8 102921
4 марта, чт
чт400:00−9ююв127476 0.4 103021
03:00−11ююв116640 0.0 103021
06:00−12ююв116021 0.0 103121
09:00−9св00690 0.0 103122
12:00−6ссв22820 0.0 1030184
15:00−5ссв239137 0.0 1028330
18:00−9з119655 0.0 102923
21:00−10з119173 0.0 102921
5 марта, пт
пт500:00−9ссз119474 0.0 102821
03:00−11св018775 0.0 102621
06:00−11зсз018243 0.0 102421
09:00−9сз229432 0.0 102449
12:00−4ссз349765 0.1 1026180
15:00+1з41084100 0.0 1027441
18:000з51176100 0.0 1032514
21:00−4юз227858 0.1 103522
6 марта, сб
сб600:00−6ю128073 0.2 103621
03:00−8ююв126928 0.0 103521
06:00−9ююв125514 0.0 103521
09:00−7сз116810 0.0 103321
12:00−4ссз11815 0.0 1031175
15:00−3с119124 0.0 1028204
18:00−8зюз119743 0.0 102721
21:00−10з118849 0.0 102721